Weather History for Monte Cimone, Italy

Change the Weather History Date:

Thursday, March 21, 2013

  Actual Average Record
Temperature  
Mean Temperature 26 °F -  
Max Temperature 30 °F 33 °F 51 °F (2002)
Min Temperature 22 °F 26 °F 10 °F (1998)
Degree Days  
Heating Degree Days 39    
Moisture  
Dew Point 19 °F    
Average Humidity 74    
Maximum Humidity 96    
Minimum Humidity 47    
Precipitation  
Precipitation 0.00 in 0.07 in - ()
Sea Level Pressure  
Sea Level Pressure 29.76 in    
Wind  
Wind Speed 24 mph ()    
Max Wind Speed 48 mph    
Max Gust Speed -    
Visibility 2.1 miles    
Events Fog    
Averages and records for this station are not official NWS values.
T = Trace of Precipitation, MM = Missing Value Source: Averaged Metar Reports

Daily Weather History Graph

Daily Weather History Graph

Search for Another Location

Airport:

Trip Planner

Search our weather history database for the weather conditions in past years. The results will help you decide how hot, cold, wet, or windy it might be!

Date:

Astronomy

Mar. 21, 2013 Rise Set
Actual Time 6:18 AM CET 6:30 PM CET
Civil Twilight 5:49 AM CET 6:59 PM CET
Nautical Twilight 5:15 AM CET 7:33 PM CET
Astronomical Twilight 4:41 AM CET 8:08 PM CET
Moon 12:34 PM CET (3/21) 2:40 AM CET (3/21)
Length of Visible Light 13h 10m
Length of Day
12h 12m
Waxing Gibbous, 66% of the Moon is Illuminated
Mar 21
Waxing Gibbous
Mar 27
Full
Apr 3
Last Quarter
Apr 10
New
Apr 18
First Quarter

Hourly Weather History & Observations

Time (CET) Temp. Windchill Dew Point Humidity Pressure Visibility Wind Dir Wind Speed Gust Speed Precip Events Conditions
12:55 AM 26.6 °F 12.7 °F 24.8 °F 93% 29.62 in 0.0 mi West 20.7 mph - N/A Fog Light Freezing Fog
1:00 AM 26 °F - 25 °F 96%  in 0 mi West 20.7 mph - - Fog Heavy Fog
1:55 AM 24.8 °F 7.9 °F 23.0 °F 93% 29.59 in 0.0 mi West 29.9 mph - N/A Fog Light Freezing Fog
2:55 AM 23.0 °F 5.4 °F 21.2 °F 93% 29.59 in 0.0 mi West 29.9 mph - N/A Fog Light Freezing Fog
3:55 AM 23.0 °F 4.4 °F 19.4 °F 86% 29.56 in 6.2 mi NW 34.5 mph - N/A   Scattered Clouds
4:55 AM 23.0 °F 4.4 °F 17.6 °F 80% 29.59 in 6.2 mi NW 34.5 mph - N/A   Scattered Clouds
5:55 AM 23.0 °F 3.7 °F 17.6 °F 80% 29.62 in - NW 38.0 mph - N/A   Clear
6:55 AM 23.0 °F 1.8 °F 17.6 °F 80% 29.65 in - WNW 48.3 mph - N/A   Clear
7:00 AM 23 °F - 18 °F 73%  in 31 mi WNW 48.3 mph - -   Partly Cloudy
7:55 AM 23.0 °F 6.0 °F 19.4 °F 86% 29.71 in - WNW 27.6 mph - N/A   Clear
8:55 AM 23.0 °F 5.7 °F 17.6 °F 80% 29.74 in - WNW 28.8 mph - N/A   Clear
9:55 AM 24.8 °F 8.1 °F 17.6 °F 74% 29.77 in - NW 28.8 mph - N/A   Clear
10:55 AM 24.8 °F 8.4 °F 19.4 °F 80% 29.77 in - NW 27.6 mph - N/A   Clear
11:55 AM 28.4 °F 16.6 °F 23.0 °F 80% 29.80 in - WNW 16.1 mph - N/A   Clear
12:55 PM 30.2 °F 19.8 °F 23.0 °F 75% 29.80 in - NW 13.8 mph - N/A   Clear
1:00 PM 29 °F - 22 °F 67%  in 31 mi NW 13.8 mph - -  
1:55 PM 28.4 °F 16.2 °F 19.4 °F 69% 29.83 in - NW 17.3 mph - N/A   Clear
2:55 PM 30.2 °F 20.8 °F 19.4 °F 64% 29.83 in - NW 11.5 mph - N/A   Clear
3:55 PM 28.4 °F 15.8 °F 15.8 °F 59% 29.83 in - NW 18.4 mph - N/A   Clear
4:55 PM 28.4 °F 15.8 °F 17.6 °F 64% 29.83 in - WNW 18.4 mph - N/A   Clear
5:55 PM 28.4 °F 15.8 °F 23.0 °F 80% 29.83 in - WNW 18.4 mph - N/A   Clear
6:55 PM 30.2 °F 17.4 °F 23.0 °F 75% 29.86 in - NW 20.7 mph - N/A   Clear
7:00 PM 30 °F - 24 °F 70%  in 31 mi NW 20.7 mph - -  
7:55 PM 28.4 °F 13.0 °F 17.6 °F 64% 29.89 in - NW 28.8 mph - N/A   Clear
8:55 PM 24.8 °F 9.0 °F 8.6 °F 50% 29.86 in - NW 25.3 mph - N/A   Clear
9:55 PM 26.6 °F 10.6 °F 8.6 °F 47% 29.86 in - WNW 28.8 mph - N/A   Clear
10:55 PM 28.4 °F 13.0 °F 15.8 °F 59% 29.86 in - NNW 28.8 mph - N/A   Clear
11:55 PM 26.6 °F 12.7 °F 17.6 °F 69% 29.86 in - NW 20.7 mph - N/A   Clear